| time (UTC) | temp F | wind direction | speed MPH | gust MPH | rain 1hr in | rain 24hr in | rain mn in | humidity % | barometer mb |
| 20260506121511 | 63 | 71 | 1.0 | 6.0 | 0.00 | 0.18 | 0.00 | 60 | 1002.7 |
| 20260506120017 | 63 | 43 | 1.0 | 6.0 | 0.00 | 0.18 | 0.00 | 60 | 1002.9 |
| 20260506114504 | 63 | 49 | 0.0 | 0.0 | 0.00 | 0.18 | 0.00 | 59 | 1003.1 |
| 20260506113014 | 63 | 107 | 0.0 | 0.0 | 0.00 | 0.18 | 0.00 | 60 | 1003.3 |
| 20260506111622 | 63 | 28 | 0.0 | 0.0 | 0.00 | 0.18 | 0.00 | 59 | 1003.3 |
| 20260506110017 | 64 | 111 | 0.0 | 0.0 | 0.00 | 0.18 | 0.00 | 57 | 1003.6 |
| 20260506104502 | 64 | 111 | 0.0 | 0.0 | 0.00 | 0.18 | 0.00 | 58 | 1003.8 |
| 20260506103023 | 63 | 70 | 0.0 | 0.0 | 0.00 | 0.18 | 0.00 | 59 | 1003.8 |
| 20260506101504 | 62 | 37 | 0.0 | 0.0 | 0.00 | 0.18 | 0.00 | 61 | 1004.1 |
| 20260506100029 | 61 | 344 | 0.0 | 0.0 | 0.00 | 0.18 | 0.00 | 60 | 1004.0 |
| 20260506094509 | 62 | 44 | 0.0 | 0.0 | 0.00 | 0.18 | 0.00 | 61 | 1004.2 |
| 20260506093015 | 62 | 117 | 0.0 | 0.0 | 0.00 | 0.18 | 0.00 | 60 | 1004.2 |
| 20260506091505 | 61 | 74 | 0.0 | 0.0 | 0.00 | 0.18 | 0.00 | 61 | 1004.1 |
| 20260506090018 | 62 | 50 | 0.0 | 0.0 | 0.00 | 0.18 | 0.00 | 62 | 1004.2 |
| 20260506084506 | 61 | 95 | 0.0 | 0.0 | 0.00 | 0.18 | 0.00 | 64 | 1004.3 |
| 20260506083018 | 61 | 333 | 0.0 | 0.0 | 0.00 | 0.18 | 0.00 | 64 | 1004.2 |
| 20260506081507 | 60 | 113 | 0.0 | 0.0 | 0.00 | 0.18 | 0.00 | 66 | 1004.3 |
| 20260506073005 | 58 | 298 | 0.0 | 0.0 | 0.00 | 0.18 | 0.00 | 72 | 1004.7 |
| 20260506071510 | 57 | 298 | 0.0 | 0.0 | 0.00 | 0.18 | 0.00 | 77 | 1004.8 |
| 20260506070126 | 56 | 228 | 0.0 | 0.0 | 0.00 | 0.18 | 0.00 | 85 | 1004.8 |
| 20260506061511 | 52 | 228 | 0.0 | 0.0 | 0.00 | 0.18 | 0.00 | 88 | 1004.9 |
| 20260506044502 | 48 | 228 | 0.0 | 0.0 | 0.00 | 0.18 | 0.00 | 88 | 1005.2 |
| 20260506043009 | 48 | 228 | 0.0 | 0.0 | 0.00 | 0.18 | 0.00 | 88 | 1005.3 |
| 20260506041515 | 47 | 228 | 0.0 | 0.0 | 0.00 | 0.18 | 0.00 | 88 | 1005.4 |
| 20260506040027 | 48 | 228 | 0.0 | 0.0 | 0.00 | 0.18 | 0.00 | 88 | 1005.6 |
| 20260506034516 | 48 | 228 | 0.0 | 0.0 | 0.00 | 0.18 | 0.00 | 87 | 1005.6 |
| 20260506033105 | 48 | 228 | 0.0 | 0.0 | 0.00 | 0.18 | 0.00 | 87 | 1005.7 |
| 20260506031524 | 49 | 228 | 0.0 | 0.0 | 0.00 | 0.18 | 0.00 | 87 | 1005.8 |
| 20260506030003 | 49 | 228 | 0.0 | 0.0 | 0.00 | 0.18 | 0.00 | 87 | 1005.9 |
| 20260506024533 | 49 | 228 | 0.0 | 0.0 | 0.00 | 0.18 | 0.00 | 87 | 1006.1 |
| 20260506023004 | 49 | 228 | 0.0 | 3.0 | 0.00 | 0.18 | 0.00 | 87 | 1006.3 |
| 20260506021517 | 49 | 197 | 0.0 | 0.0 | 0.00 | 0.18 | 0.00 | 87 | 1006.1 |
| 20260506020005 | 49 | 197 | 0.0 | 2.0 | 0.00 | 0.18 | 0.00 | 87 | 1005.9 |
| 20260506014519 | 50 | 210 | 0.0 | 0.0 | 0.00 | 0.18 | 0.00 | 87 | 1006.1 |
| 20260506013007 | 50 | 210 | 0.0 | 0.0 | 0.00 | 0.18 | 0.00 | 87 | 1006.2 |
| 20260506011539 | 50 | 210 | 0.0 | 0.0 | 0.00 | 0.18 | 0.00 | 87 | 1006.4 |
| 20260506010005 | 50 | 210 | 0.0 | 0.0 | 0.00 | 0.18 | 0.00 | 87 | 1006.5 |
| 20260506004519 | 50 | 210 | 0.0 | 1.0 | 0.00 | 0.18 | 0.00 | 87 | 1006.4 |
| 20260506003008 | 51 | 210 | 0.0 | 1.0 | 0.00 | 0.18 | 0.00 | 87 | 1006.4 |
| 20260506001521 | 51 | 210 | 0.0 | 2.0 | 0.00 | 0.18 | 0.00 | 87 | 1006.6 |
| 20260506000008 | 51 | 210 | 0.0 | 0.0 | 0.00 | 0.18 | 0.00 | 87 | 1006.6 |
| 20260505234537 | 52 | 210 | 0.0 | 0.0 | 0.00 | 0.18 | 0.00 | 87 | 1006.7 |
| 20260505233008 | 52 | 210 | 0.0 | 0.0 | 0.00 | 0.18 | 0.00 | 87 | 1006.8 |
| 20260505231522 | 53 | 210 | 0.0 | 0.0 | 0.00 | 0.18 | 0.00 | 86 | 1006.8 |
| 20260505230011 | 53 | 210 | 0.0 | 0.0 | 0.00 | 0.18 | 0.00 | 87 | 1006.9 |
| 20260505224534 | 53 | 210 | 0.0 | 3.0 | 0.00 | 0.18 | 0.00 | 86 | 1007.0 |
| 20260505223015 | 53 | 201 | 1.0 | 5.0 | 0.00 | 0.18 | 0.00 | 86 | 1007.0 |
| 20260505221521 | 54 | 199 | 0.0 | 3.0 | 0.00 | 0.18 | 0.00 | 87 | 1007.0 |
| 20260505220008 | 54 | 167 | 0.0 | 5.0 | 0.01 | 0.18 | 0.00 | 86 | 1007.1 |
| 20260505214523 | 54 | 192 | 0.0 | 4.0 | 0.14 | 0.18 | 0.18 | 89 | 1007.2 |
| 20260505213010 | 54 | 170 | 0.0 | 5.0 | 0.16 | 0.18 | 0.18 | 86 | 1007.2 |
| 20260505211603 | 54 | 190 | 0.0 | 3.0 | 0.16 | 0.18 | 0.18 | 85 | 1007.2 |
| 20260505210012 | 54 | 185 | 0.0 | 17.0 | 0.17 | 0.17 | 0.17 | 83 | 1007.1 |
| 20260505204502 | 55 | 226 | 0.0 | 3.0 | 0.04 | 0.04 | 0.04 | 82 | 1006.9 |
| 20260505203014 | 56 | 197 | 0.0 | 3.0 | 0.02 | 0.02 | 0.02 | 80 | 1006.9 |
| 20260505201502 | 58 | 233 | 0.0 | 4.0 | 0.02 | 0.02 | 0.02 | 74 | 1006.5 |
| 20260505200011 | 59 | 222 | 0.0 | 4.0 | 0.00 | 0.00 | 0.00 | 69 | 1006.3 |
| 20260505194619 | 59 | 236 | 1.0 | 6.0 | 0.00 | 0.00 | 0.00 | 68 | 1005.8 |
| 20260505193016 | 59 | 263 | 1.0 | 3.0 | 0.00 | 0.00 | 0.00 | 70 | 1005.4 |
| 20260505191503 | 60 | 205 | 0.0 | 1.0 | 0.00 | 0.00 | 0.00 | 67 | 1004.7 |
| 20260505190013 | 60 | 302 | 0.0 | 1.0 | 0.00 | 0.00 | 0.00 | 65 | 1004.7 |
| 20260505184505 | 61 | 304 | 0.0 | 0.0 | 0.00 | 0.00 | 0.00 | 64 | 1004.4 |
| 20260505183018 | 61 | 304 | 0.0 | 4.0 | 0.00 | 0.00 | 0.00 | 64 | 1004.2 |
| 20260505181506 | 61 | 324 | 3.0 | 6.0 | 0.00 | 0.00 | 0.00 | 63 | 1004.1 |
| 20260505180015 | 62 | 322 | 3.0 | 10.0 | 0.00 | 0.00 | 0.00 | 61 | 1004.2 |
| 20260505174506 | 62 | 336 | 4.0 | 7.0 | 0.00 | 0.00 | 0.00 | 60 | 1004.2 |
| 20260505173017 | 63 | 300 | 4.0 | 8.0 | 0.00 | 0.00 | 0.00 | 61 | 1004.0 |
| 20260505171507 | 63 | 296 | 3.0 | 6.0 | 0.00 | 0.00 | 0.00 | 64 | 1004.0 |
| 20260505170021 | 63 | 338 | 3.0 | 9.0 | 0.00 | 0.00 | 0.00 | 64 | 1003.8 |
| 20260505164507 | 64 | 317 | 4.0 | 7.0 | 0.00 | 0.00 | 0.00 | 66 | 1003.8 |
| 20260505163021 | 64 | 323 | 3.0 | 7.0 | 0.00 | 0.00 | 0.00 | 67 | 1003.8 |
| 20260505161509 | 64 | 346 | 2.0 | 8.0 | 0.00 | 0.00 | 0.00 | 66 | 1003.9 |
| 20260505153017 | 65 | 331 | 1.0 | 6.0 | 0.00 | 0.00 | 0.00 | 61 | 1003.8 |
| 20260505151505 | 66 | 321 | 1.0 | 7.0 | 0.00 | 0.00 | 0.00 | 56 | 1004.0 |
| 20260505124538 | 71 | 279 | 0.0 | 6.0 | 0.00 | 0.00 | 0.00 | 39 | 1003.5 |
| 20260505123044 | 72 | 305 | 3.0 | 8.0 | 0.00 | 0.00 | 0.00 | 39 | 1003.6 |